#timestamp,LO_Frequency,Hit,StdDev 
1517058015.0,286047002.4,N
1517058015.9,286047002.4,N
1517058035.8,286047000.4,N
1517058055.6,286047000.5,N
1517058075.5,286046998.6,N
1517058095.3,286046998.2,N
1517058115.1,286046998.2,N
1517058135.9,286046998.5,N
1517058155.7,286047001.2,N
1517058175.6,286047000.5,N
1517058195.4,286047000.6,N
1517058215.2,286047000.7,N
1517058235.1,286047000.9,N
1517058236.0,286047000.9,N
1517058255.8,286047000.7,N
1517058275.7,286047002.3,N
1517058295.5,286047000.6,N
1517058315.3,286046998.1,N
1517058335.2,286047001.2,N
1517058355.9,286046998.6,N
1517058375.7,286046998.1,N
1517058395.6,286047000.2,N
1517058415.4,286047002.8,N
1517058435.3,286047000.9,N
1517058455.1,286047001.1,N
1517058456.0,286047001.1,N
1517058475.8,286046998.5,N
1517058495.7,286046996.6,N
1517058515.5,286046996.9,N
1517058535.4,286046998.7,N
1517058555.2,286046998.8,N
1517058575.0,286046998.4,N
1517058575.9,286046998.4,N
1517058595.8,286046998.2,N
1517058615.6,286046998.2,N
1517058635.5,286047001.1,N
1517058655.3,286046999.0,N
1517058675.1,286046998.1,N
1517058695.9,286046998.3,N
1517058715.7,286046999.0,N
1517058735.6,286046998.3,N
1517058755.4,286047000.0,N
1517058775.2,286046998.5,N
1517058795.1,286047001.0,N
1517058796.0,286047001.0,N
1517058815.8,286046998.8,N
1517058835.7,286046999.2,N
1517058855.5,286046999.4,N
1517058875.3,286046998.6,N
1517058895.2,286047000.9,N
1517058915.0,286047000.0,N
1517058915.9,286047000.0,N
1517058935.7,286046999.9,N
1517058955.6,286047001.6,N
1517058975.4,286047002.1,N
1517058995.3,286047004.3,Y
1517059015.1,286047001.9,P
1517059016.0,286047001.9,N
1517059035.8,286047001.7,N
1517059055.6,286047001.7,N
1517059075.5,286047004.3,Y
1517059095.3,286047004.3,P
1517059115.1,286047003.8,N
1517059135.9,286047004.4,P
1517059155.7,286047002.3,N
1517059175.5,286047002.5,N
1517059195.4,286047000.1,N
1517059215.2,286047000.9,N
1517059235.1,286046998.7,N
1517059236.0,286046998.7,N
1517059255.8,286047001.1,N
1517059275.6,286047000.2,N
1517059295.5,286046999.9,N
1517059315.3,286047000.5,N
1517059335.2,286047000.8,N
1517059355.9,286047004.3,N
1517059375.7,286047004.2,N
1517059395.6,286047003.9,N
1517059415.4,286046999.7,N
1517059435.2,286047001.5,N
1517059455.1,286047002.1,N
1517059456.0,286047002.1,N
1517059475.8,286047001.6,N
1517059495.7,286047001.4,N
1517059515.5,286047003.9,N
1517059535.3,286047001.8,N
1517059555.2,286047003.6,N
1517059575.0,286047003.9,N
1517059575.9,286047003.9,N
1517059595.8,286047001.4,N
1517059615.6,286047003.6,N
1517059635.4,286047001.7,N
1517059655.3,286047003.6,N
1517059675.1,286047003.7,N
1517059695.8,286047001.4,N
1517059715.7,286047002.7,N
1517059735.5,286047001.0,N
1517059755.4,286046998.2,N
1517059775.2,286046998.3,N
1517059795.0,286046998.8,N
1517059795.9,286046998.8,N
1517059815.8,286046998.7,N
1517059835.6,286047000.0,N
1517059855.4,286046999.9,N
1517059875.3,286047000.5,N
1517059895.1,286047000.4,N
1517059915.9,286046999.7,N
1517059935.7,286047002.0,N
1517059955.5,286047002.2,N
1517059975.4,286047000.2,N
1517060025.2,286047001.0,E
1517060035.2,286047001.1,N
1517060055.9,286046996.7,P
1517060075.7,286046996.8,N
1517060095.6,286046996.5,N
1517060115.4,286046999.3,N
1517060135.2,286046996.7,N
1517060155.1,286046999.1,N
1517060156.0,286046999.1,N
1517060175.8,286046998.8,N
1517060195.7,286047000.7,N
1517060215.5,286046998.5,N
1517060235.3,286047000.7,N
1517060255.2,286047000.7,N
1517060275.0,286046998.6,N
1517060275.9,286046998.6,N
1517060295.8,286046998.5,N
1517060315.6,286047000.9,N
1517060335.4,286047000.0,N
1517060355.3,286047002.7,N
1517060375.1,286047001.0,N
1517060395.8,286047000.2,N
1517060415.7,286047001.1,N
1517060435.5,286046998.5,N
1517060455.4,286046999.5,N
1517060475.2,286046999.0,N
1517060495.0,286047000.8,N
1517060495.9,286047000.8,N
1517060515.8,286046999.7,N
1517060535.6,286047000.7,N
1517060555.4,286046998.7,N
1517060575.3,286046998.5,N
1517060595.1,286047000.1,N
1517060615.9,286047001.1,N
1517060635.7,286046998.2,N
1517060655.5,286047000.6,N
1517060675.4,286046998.7,N
1517060695.2,286047000.5,N
1517060715.0,286047000.9,N
1517060716.0,286047000.9,N
1517060735.8,286046998.6,N
1517060755.6,286046999.1,N
1517060775.5,286046998.6,N
1517060795.3,286046998.3,N
1517060815.1,286047001.2,N
1517060835.9,286047000.9,N
1517060855.7,286047000.8,N
1517060875.6,286046998.6,N
1517060895.4,286046998.2,N
1517060915.2,286046999.1,N
1517060935.1,286046996.5,Y
1517060936.0,286046996.5,P
1517060955.8,286046998.4,N
1517060975.7,286047001.1,N
1517060995.5,286046998.8,N
1517061015.3,286046996.7,N
1517061035.2,286046998.9,N
1517061055.0,286046998.5,N
1517061055.9,286046998.5,N
1517061075.7,286046998.2,N
1517061095.6,286046999.9,N
1517061115.4,286047002.8,N
1517061135.3,286047002.3,N
1517061155.1,286047000.1,N
1517061156.0,286047000.1,N
1517061175.8,286047001.1,N
1517061195.7,286047002.1,N
1517061215.5,286046999.9,N
1517061235.3,286047002.5,N
1517061255.2,286047002.6,N
1517061275.0,286047000.0,N
1517061295.1,286047001.2,N
1517061315.0,286047000.5,N
1517061315.9,286047000.5,N
1517061365.8,286047002.5,E
1517061375.7,286047000.6,N
1517061395.6,286046997.3,P
1517061415.4,286046996.7,N
1517061435.2,286046998.6,N
1517061455.1,286046999.3,N
1517061456.0,286046999.3,N
1517061475.8,286046998.4,N
1517061495.7,286046999.4,N
1517061515.5,286046998.9,N
1517061535.3,286046999.6,N
1517061555.2,286046997.1,N
1517061575.0,286046999.6,N
1517061575.9,286046999.6,N
1517061595.8,286046998.7,N
